EW2649 Weather Reports


Display with metric or nautical units.
time (UTC)temp
F
wind
direction
speed
MPH
gust
MPH
rain 1hr
in
rain 24hr
in
rain mn
in
humidity
%
barometer
mb
20260901114548 58 194 2.0 4.0 0.00 0.00 0.00 79 1010.4
20260901113048 58 178 0.0 1.0 0.00 0.00 0.00 79 1010.5
20260901111551 59 176 0.0 5.0 0.00 0.00 0.00 77 1010.6
20260901110046 59 174 2.0 4.0 0.00 0.00 0.00 77 1010.7
20260901104545 59 205 1.0 4.0 0.00 0.00 0.00 77 1010.8
20260901103049 59 167 3.0 5.0 0.00 0.00 0.00 77 1010.6
20260901101541 59 234 1.0 7.0 0.00 0.00 0.00 76 1010.5
20260901100040 59 219 0.0 5.0 0.00 0.00 0.00 78 1010.4
20260901094539 58 294 2.0 4.0 0.00 0.00 0.00 81 1010.4
20260901093036 58 267 1.0 3.0 0.00 0.00 0.00 81 1010.3
20260901091533 57 288 0.0 4.0 0.00 0.00 0.00 83 1010.4
20260901090031 57 190 2.0 4.0 0.00 0.00 0.00 85 1010.5
20260901084530 56 241 1.0 2.0 0.00 0.00 0.00 85 1010.5
20260901083027 56 240 0.0 2.0 0.00 0.00 0.00 85 1010.5
20260901081525 56 159 0.0 2.0 0.00 0.00 0.00 86 1010.5
20260901080022 55 159 0.0 2.0 0.00 0.00 0.00 87 1010.3
20260901074518 54 168 3.0 5.0 0.00 0.00 0.00 87 1010.5
20260901073015 54 184 2.0 5.0 0.00 0.00 0.00 87 1010.5
20260901071513 54 121 3.0 6.0 0.00 0.00 0.00 87 1010.5
20260901070021 54 175 0.0 5.0 0.00 0.00 0.00 87 1010.6
20260901064542 54 191 0.0 3.0 0.00 0.00 0.00 87 1010.7
20260901063039 54 226 0.0 8.0 0.00 0.00 0.00 87 1010.7
20260901061537 53 5 0.0 4.0 0.00 0.00 0.00 87 1010.6
20260901060037 53 201 1.0 4.0 0.00 0.00 0.00 87 1010.7
20260901054536 53 185 2.0 4.0 0.00 0.00 0.00 86 1010.8
20260901053038 54 192 0.0 3.0 0.00 0.00 0.00 84 1010.8
20260901051536 55 201 1.0 2.0 0.00 0.00 0.00 83 1010.6
20260901050035 56 201 0.0 3.0 0.00 0.00 0.00 81 1010.5
20260901044536 57 232 0.0 2.0 0.00 0.00 0.00 79 1010.5
20260901043033 58 319 3.0 10.0 0.00 0.00 0.00 80 1010.2
20260901041533 58 246 4.0 10.0 0.00 0.00 0.00 80 1010.2
20260901040034 58 164 0.0 9.0 0.00 0.00 0.00 79 1010.1
20260901034536 58 200 3.0 8.0 0.00 0.00 0.00 79 1010.1
20260901033033 59 216 0.0 3.0 0.00 0.00 0.00 78 1009.7
20260901031533 59 293 2.0 13.0 0.00 0.00 0.00 78 1009.6
20260901030032 59 232 7.0 17.0 0.00 0.00 0.00 77 1009.4
20260901024531 60 271 4.0 8.0 0.00 0.00 0.00 77 1009.4
20260901023039 60 268 2.0 7.0 0.00 0.00 0.00 76 1009.3
20260901021534 61 280 2.0 6.0 0.00 0.00 0.00 74 1009.1
20260901020030 62 270 2.0 8.0 0.00 0.00 0.00 72 1009.0
20260901014529 62 284 2.0 8.0 0.00 0.00 0.00 72 1009.0
20260901013030 63 261 2.0 11.0 0.00 0.00 0.00 71 1009.0
20260901011528 64 252 11.0 15.0 0.00 0.00 0.00 69 1008.9
20260901010028 65 259 5.0 13.0 0.00 0.00 0.00 69 1008.9
20260901004527 66 256 8.0 12.0 0.00 0.00 0.00 66 1008.8
20260901003027 66 269 7.0 13.0 0.00 0.00 0.00 65 1008.7
20260901001528 67 271 10.0 17.0 0.00 0.00 0.00 64 1008.7
20260901000026 68 236 8.0 16.0 0.00 0.00 0.00 62 1008.7
20260831234525 69 248 3.0 12.0 0.00 0.00 0.00 61 1008.7
20260831233024 69 255 7.0 13.0 0.00 0.00 0.00 61 1008.9
20260831231530 69 248 3.0 13.0 0.00 0.00 0.00 62 1008.8
20260831230034 70 227 7.0 12.0 0.00 0.00 0.00 60 1008.9
20260831224522 70 198 8.0 13.0 0.00 0.00 0.00 59 1009.0
20260831223018 70 251 3.0 11.0 0.00 0.00 0.00 62 1009.2
20260831221514 69 228 6.0 13.0 0.00 0.00 0.00 63 1009.4
20260831220011 68 231 6.0 14.0 0.00 0.00 0.00 65 1009.6
20260831214509 68 269 8.0 14.0 0.00 0.00 0.00 65 1009.9
20260831213007 67 229 6.0 14.0 0.00 0.00 0.00 66 1010.0
20260831211510 66 218 8.0 18.0 0.00 0.00 0.00 69 1010.3
20260831210004 66 231 6.0 14.0 0.00 0.00 0.00 68 1010.4
20260831204504 66 200 9.0 15.0 0.00 0.00 0.00 70 1010.4
20260831203102 65 240 6.0 16.0 0.00 0.00 0.00 72 1010.5
20260831201559 65 198 9.0 15.0 0.00 0.00 0.00 71 1010.6
20260831200058 66 244 4.0 11.0 0.00 0.00 0.00 70 1010.5
20260831194621 64 192 6.0 12.0 0.00 0.00 0.00 72 1010.4
20260831193053 65 210 5.0 10.0 0.00 0.00 0.00 73 1010.7
20260831191553 64 234 6.0 10.0 0.00 0.00 0.00 73 1010.9
20260831190056 64 205 3.0 8.0 0.00 0.00 0.00 73 1010.7
20260831184549 64 266 6.0 9.0 0.00 0.00 0.00 72 1010.7
20260831183048 64 270 3.0 11.0 0.00 0.00 0.00 73 1010.8
20260831181545 64 246 4.0 9.0 0.00 0.00 0.00 74 1010.8
20260831180041 63 360 3.0 6.0 0.00 0.00 0.00 77 1010.8
20260831174537 62 221 2.0 8.0 0.00 0.00 0.00 77 1010.9
20260831173032 61 306 2.0 6.0 0.00 0.00 0.00 78 1010.9
20260831171528 61 270 3.0 9.0 0.00 0.00 0.00 79 1010.9
20260831170023 60 302 1.0 9.0 0.00 0.00 0.00 80 1010.7
20260831164523 60 249 6.0 12.0 0.00 0.00 0.00 80 1010.5
20260831163023 60 216 3.0 7.0 0.00 0.00 0.00 82 1010.6
20260831161526 59 332 0.0 4.0 0.00 0.00 0.00 84 1010.4
20260831160014 58 168 1.0 4.0 0.00 0.00 0.00 87 1010.3
20260831154505 57 237 0.0 4.0 0.00 0.00 0.00 90 1010.5
20260831153002 56 279 0.0 1.0 0.00 0.00 0.00 91 1010.4
20260831151558 55 278 0.0 1.0 0.00 0.00 0.00 91 1010.5
20260831150053 54 279 0.0 2.0 0.00 0.00 0.00 92 1010.4
20260831144550 52 278 0.0 2.0 0.00 0.00 0.00 91 1010.3
20260831143053 51 278 1.0 2.0 0.00 0.00 0.00 91 1010.2
20260831141545 50 278 1.0 2.0 0.00 0.00 0.00 91 1009.9
20260831140040 49 278 1.0 3.0 0.00 0.00 0.00 90 1009.8
20260831134539 50 278 0.0 0.0 0.00 0.00 0.00 90 1009.6
20260831133040 50 278 1.0 3.0 0.00 0.00 0.00 90 1009.3
20260831131545 50 277 0.0 1.0 0.00 0.00 0.00 89 1009.4
20260831130032 50 277 0.0 1.0 0.00 0.00 0.00 89 1009.3
20260831124530 51 277 0.0 0.0 0.00 0.00 0.00 89 1009.4
20260831123028 51 277 0.0 2.0 0.00 0.00 0.00 88 1009.2
20260831121525 52 277 0.0 2.0 0.00 0.00 0.00 88 1009.1
20260831120023 52 277 0.0 3.0 0.00 0.00 0.00 87 1009.0